Year,Month,Day,Hour,Minute,Value (Times are PST for temperature in C)
2015,07,03,00,00,23.70
2015,07,03,00,01,23.70
2015,07,03,00,02,23.70
2015,07,03,00,03,23.70
2015,07,03,00,04,23.70
2015,07,03,00,05,23.60
2015,07,03,00,06,23.60
2015,07,03,00,07,23.60
2015,07,03,00,08,23.50
2015,07,03,00,09,23.50
2015,07,03,00,10,23.50
2015,07,03,00,11,23.40
2015,07,03,00,12,23.40
2015,07,03,00,13,23.40
2015,07,03,00,14,23.40
2015,07,03,00,15,23.40
2015,07,03,00,16,23.40
2015,07,03,00,17,23.30
2015,07,03,00,18,23.30
2015,07,03,00,19,23.30
2015,07,03,00,20,23.30
2015,07,03,00,21,23.30
2015,07,03,00,22,23.30
2015,07,03,00,23,23.30
2015,07,03,00,24,23.30
2015,07,03,00,25,23.20
2015,07,03,00,26,23.20
2015,07,03,00,27,23.20
2015,07,03,00,28,23.20
2015,07,03,00,29,23.20
2015,07,03,00,30,23.20
2015,07,03,00,31,23.20
2015,07,03,00,32,23.20
2015,07,03,00,33,23.20
2015,07,03,00,34,23.20
2015,07,03,00,35,23.20
2015,07,03,00,36,23.20
2015,07,03,00,37,23.10
2015,07,03,00,38,23.10
2015,07,03,00,39,23.10
2015,07,03,00,40,23.10
2015,07,03,00,41,23.10
2015,07,03,00,42,23.00
2015,07,03,00,43,23.00
2015,07,03,00,44,23.00
2015,07,03,00,45,22.90
2015,07,03,00,46,22.90
2015,07,03,00,47,22.90
2015,07,03,00,48,22.90
2015,07,03,00,49,22.80
2015,07,03,00,50,22.80
2015,07,03,00,51,22.80
2015,07,03,00,52,22.80
2015,07,03,00,53,22.80
2015,07,03,00,54,22.70
2015,07,03,00,55,22.70
2015,07,03,00,56,22.70
2015,07,03,00,57,22.70
2015,07,03,00,58,22.70
2015,07,03,00,59,22.60
2015,07,03,01,00,22.60
2015,07,03,01,01,22.60
2015,07,03,01,02,22.60
2015,07,03,01,03,22.50
2015,07,03,01,04,22.50
2015,07,03,01,05,22.40
2015,07,03,01,06,22.40
2015,07,03,01,07,22.40
2015,07,03,01,08,22.40
2015,07,03,01,09,22.40
2015,07,03,01,10,22.40
2015,07,03,01,11,22.30
2015,07,03,01,12,22.30
2015,07,03,01,13,22.30
2015,07,03,01,14,22.30
2015,07,03,01,15,22.20
2015,07,03,01,16,22.20
2015,07,03,01,17,22.20
2015,07,03,01,18,22.20
2015,07,03,01,19,22.10
2015,07,03,01,20,22.10
2015,07,03,01,21,22.10
2015,07,03,01,22,22.10
2015,07,03,01,23,22.10
2015,07,03,01,24,22.10
2015,07,03,01,25,22.00
2015,07,03,01,26,22.00
2015,07,03,01,27,22.00
2015,07,03,01,28,22.00
2015,07,03,01,29,22.00
2015,07,03,01,30,21.90
2015,07,03,01,31,21.90
2015,07,03,01,32,21.90
2015,07,03,01,33,21.90
2015,07,03,01,34,21.90
2015,07,03,01,35,21.80
2015,07,03,01,36,21.80
2015,07,03,01,37,21.80
2015,07,03,01,38,21.70
2015,07,03,01,39,21.70
2015,07,03,01,40,21.70
2015,07,03,01,41,21.70
2015,07,03,01,42,21.70
2015,07,03,01,43,21.70
2015,07,03,01,44,21.70
2015,07,03,01,45,21.60
2015,07,03,01,46,21.60
2015,07,03,01,47,21.60
2015,07,03,01,48,21.60
2015,07,03,01,49,21.60
2015,07,03,01,50,21.60
2015,07,03,01,51,21.60
2015,07,03,01,52,21.50
2015,07,03,01,53,21.50
2015,07,03,01,54,21.50
2015,07,03,01,55,21.50
2015,07,03,01,56,21.50
2015,07,03,01,57,21.50
2015,07,03,01,58,21.40
2015,07,03,01,59,21.40
2015,07,03,02,00,21.40
2015,07,03,02,01,21.40
2015,07,03,02,02,21.40
2015,07,03,02,03,21.40
2015,07,03,02,04,21.30
2015,07,03,02,05,21.30
2015,07,03,02,06,21.30
2015,07,03,02,07,21.30
2015,07,03,02,08,21.30
2015,07,03,02,09,21.30
2015,07,03,02,10,21.20
2015,07,03,02,11,21.20
2015,07,03,02,12,21.20
2015,07,03,02,13,21.20
2015,07,03,02,14,21.20
2015,07,03,02,15,21.20
2015,07,03,02,16,21.20
2015,07,03,02,17,21.20
2015,07,03,02,18,21.20
2015,07,03,02,19,21.20
2015,07,03,02,20,21.20
2015,07,03,02,21,21.20
2015,07,03,02,22,21.20
2015,07,03,02,23,21.20
2015,07,03,02,24,21.20
2015,07,03,02,25,21.20
2015,07,03,02,26,21.10
2015,07,03,02,27,21.10
2015,07,03,02,28,21.10
2015,07,03,02,29,21.10
2015,07,03,02,30,21.10
2015,07,03,02,31,21.10
2015,07,03,02,32,21.10
2015,07,03,02,33,21.10
2015,07,03,02,34,21.10
2015,07,03,02,35,21.10
2015,07,03,02,36,21.00
2015,07,03,02,37,21.00
2015,07,03,02,38,21.00
2015,07,03,02,39,21.00
2015,07,03,02,40,21.00
2015,07,03,02,41,21.00
2015,07,03,02,42,21.00
2015,07,03,02,43,20.90
2015,07,03,02,44,20.90
2015,07,03,02,45,20.90
2015,07,03,02,46,20.90
2015,07,03,02,47,20.80
2015,07,03,02,48,20.80
2015,07,03,02,49,20.80
2015,07,03,02,50,20.70
2015,07,03,02,51,20.70
2015,07,03,02,52,20.70
2015,07,03,02,53,20.70
2015,07,03,02,54,20.60
2015,07,03,02,55,20.60
2015,07,03,02,56,20.60
2015,07,03,02,57,20.60
2015,07,03,02,58,20.60
2015,07,03,02,59,20.60
2015,07,03,03,00,20.60
2015,07,03,03,01,20.50
2015,07,03,03,02,20.50
2015,07,03,03,06,20.40
2015,07,03,03,07,20.40
2015,07,03,03,08,20.40
2015,07,03,03,09,20.40
2015,07,03,03,10,20.40
2015,07,03,03,11,20.40
2015,07,03,03,12,20.40
2015,07,03,03,13,20.30
2015,07,03,03,14,20.30
2015,07,03,03,15,20.30
2015,07,03,03,16,20.30
2015,07,03,03,17,20.30
2015,07,03,03,18,20.20
2015,07,03,03,19,20.20
2015,07,03,03,20,20.20
2015,07,03,03,21,20.20
2015,07,03,03,22,20.20
2015,07,03,03,23,20.10
2015,07,03,03,24,20.10
2015,07,03,03,25,20.10
2015,07,03,03,26,20.10
2015,07,03,03,27,20.00
2015,07,03,03,28,20.00
2015,07,03,03,29,20.00
2015,07,03,03,30,19.90
2015,07,03,03,31,19.90
2015,07,03,03,32,19.90
2015,07,03,03,33,19.90
2015,07,03,03,34,19.90
2015,07,03,03,35,19.80
2015,07,03,03,36,19.80
2015,07,03,03,37,19.80
2015,07,03,03,38,19.80
2015,07,03,03,39,19.80
2015,07,03,03,40,19.70
2015,07,03,03,41,19.70
2015,07,03,03,42,19.70
2015,07,03,03,43,19.70
2015,07,03,03,44,19.70
2015,07,03,03,45,19.70
2015,07,03,03,46,19.70
2015,07,03,03,47,19.70
2015,07,03,03,48,19.70
2015,07,03,03,49,19.70
2015,07,03,03,50,19.70
2015,07,03,03,51,19.70
2015,07,03,03,52,19.70
2015,07,03,03,53,19.70
2015,07,03,03,54,19.70
2015,07,03,03,55,19.70
2015,07,03,03,56,19.70
2015,07,03,03,57,19.70
2015,07,03,03,58,19.70
2015,07,03,03,59,19.70
2015,07,03,04,00,19.70
2015,07,03,04,01,19.70
2015,07,03,04,02,19.70
2015,07,03,04,03,19.70
2015,07,03,04,04,19.60
2015,07,03,04,05,19.60
2015,07,03,04,06,19.60
2015,07,03,04,07,19.60
2015,07,03,04,08,19.60
2015,07,03,04,09,19.50
2015,07,03,04,10,19.50
2015,07,03,04,11,19.50
2015,07,03,04,12,19.50
2015,07,03,04,13,19.50
2015,07,03,04,14,19.40
2015,07,03,04,15,19.40
2015,07,03,04,16,19.40
2015,07,03,04,17,19.40
2015,07,03,04,18,19.40
2015,07,03,04,19,19.30
2015,07,03,04,20,19.30
2015,07,03,04,21,19.30
2015,07,03,04,22,19.30
2015,07,03,04,23,19.30
2015,07,03,04,24,19.20
2015,07,03,04,25,19.20
2015,07,03,04,26,19.20
2015,07,03,04,27,19.20
2015,07,03,04,28,19.20
2015,07,03,04,29,19.20
2015,07,03,04,30,19.20
2015,07,03,04,31,19.20
2015,07,03,04,32,19.20
2015,07,03,04,33,19.20
2015,07,03,04,34,19.20
2015,07,03,04,35,19.20
2015,07,03,04,36,19.20
2015,07,03,04,37,19.20
2015,07,03,04,38,19.20
2015,07,03,04,39,19.20
2015,07,03,04,40,19.20
2015,07,03,04,41,19.10
2015,07,03,04,42,19.10
2015,07,03,04,43,19.10
2015,07,03,04,44,19.10
2015,07,03,04,45,19.10
2015,07,03,04,46,19.00
2015,07,03,04,47,19.00
2015,07,03,04,48,19.00
2015,07,03,04,49,18.90
2015,07,03,04,50,18.90
2015,07,03,04,51,18.90
2015,07,03,04,52,18.90
2015,07,03,04,53,18.90
2015,07,03,04,54,18.80
2015,07,03,04,55,18.80
2015,07,03,04,56,18.80
2015,07,03,04,57,18.80
2015,07,03,04,58,18.80
2015,07,03,04,59,18.80
2015,07,03,05,00,18.80
2015,07,03,05,01,18.80
2015,07,03,05,02,18.70
2015,07,03,05,03,18.70
2015,07,03,05,04,18.70
2015,07,03,05,05,18.70
2015,07,03,05,06,18.70
2015,07,03,05,07,18.70
2015,07,03,05,08,18.70
2015,07,03,05,09,18.70
2015,07,03,05,10,18.70
2015,07,03,05,11,18.70
2015,07,03,05,12,18.70
2015,07,03,05,13,18.70
2015,07,03,05,14,18.70
2015,07,03,05,15,18.60
2015,07,03,05,16,18.60
2015,07,03,05,17,18.60
2015,07,03,05,18,18.60
2015,07,03,05,19,18.60
2015,07,03,05,20,18.60
2015,07,03,05,21,18.60
2015,07,03,05,22,18.60
2015,07,03,05,23,18.60
2015,07,03,05,24,18.60
2015,07,03,05,25,18.60
2015,07,03,05,26,18.50
2015,07,03,05,27,18.50
2015,07,03,05,28,18.50
2015,07,03,05,29,18.50
2015,07,03,05,30,18.50
2015,07,03,05,31,18.50
2015,07,03,05,32,18.50
2015,07,03,05,33,18.50
2015,07,03,05,34,18.40
2015,07,03,05,35,18.40
2015,07,03,05,36,18.40
2015,07,03,05,37,18.40
2015,07,03,05,38,18.40
2015,07,03,05,39,18.40
2015,07,03,05,40,18.40
2015,07,03,05,41,18.40
2015,07,03,05,42,18.30
2015,07,03,05,43,18.30
2015,07,03,05,44,18.30
2015,07,03,05,45,18.30
2015,07,03,05,46,18.30
2015,07,03,05,47,18.30
2015,07,03,05,48,18.30
2015,07,03,05,49,18.30
2015,07,03,05,50,18.30
2015,07,03,05,51,18.30
2015,07,03,05,52,18.30
2015,07,03,05,53,18.30
2015,07,03,05,54,18.30
2015,07,03,05,55,18.30
2015,07,03,05,56,18.30
2015,07,03,05,57,18.30
2015,07,03,05,58,18.30
2015,07,03,05,59,18.30
2015,07,03,06,00,18.20
2015,07,03,06,01,18.20
2015,07,03,06,02,18.20
2015,07,03,06,03,18.20
2015,07,03,06,04,18.20
2015,07,03,06,05,18.30
2015,07,03,06,06,18.30
2015,07,03,06,07,18.30
2015,07,03,06,08,18.30
2015,07,03,06,09,18.30
2015,07,03,06,10,18.30
2015,07,03,06,11,18.30
2015,07,03,06,12,18.30
2015,07,03,06,13,18.30
2015,07,03,06,14,18.30
2015,07,03,06,15,18.30
2015,07,03,06,16,18.30
2015,07,03,06,17,18.30
2015,07,03,06,18,18.30
2015,07,03,06,19,18.30
2015,07,03,06,20,18.30
2015,07,03,06,21,18.30
2015,07,03,06,22,18.30
2015,07,03,06,23,18.30
2015,07,03,06,24,18.30
2015,07,03,06,25,18.30
2015,07,03,06,26,18.30
2015,07,03,06,27,18.30
2015,07,03,06,28,18.30
2015,07,03,06,29,18.30
2015,07,03,06,30,18.30
2015,07,03,06,31,18.30
2015,07,03,06,32,18.30
2015,07,03,06,33,18.30
2015,07,03,06,34,18.30
2015,07,03,06,35,18.40
2015,07,03,06,36,18.40
2015,07,03,06,37,18.40
2015,07,03,06,38,18.50
2015,07,03,06,39,18.50
2015,07,03,06,40,18.60
2015,07,03,06,41,18.60
2015,07,03,06,42,18.70
2015,07,03,06,43,18.70
2015,07,03,06,44,18.70
2015,07,03,06,45,18.80
2015,07,03,06,46,18.80
2015,07,03,06,47,18.90
2015,07,03,06,48,19.00
2015,07,03,06,49,19.00
2015,07,03,06,50,19.10
2015,07,03,06,51,19.20
2015,07,03,06,52,19.20
2015,07,03,06,53,19.30
2015,07,03,06,54,19.40
2015,07,03,06,55,19.50
2015,07,03,06,56,19.60
2015,07,03,06,57,19.70
2015,07,03,06,58,19.80
2015,07,03,06,59,19.80
2015,07,03,07,00,19.90
2015,07,03,07,01,19.90
2015,07,03,07,02,19.90
2015,07,03,07,03,19.90
2015,07,03,07,04,19.90
2015,07,03,07,05,19.90
2015,07,03,07,06,19.90
2015,07,03,07,07,19.90
2015,07,03,07,08,19.90
2015,07,03,07,09,19.90
2015,07,03,07,10,19.90
2015,07,03,07,11,20.00
2015,07,03,07,12,20.00
2015,07,03,07,13,20.10
2015,07,03,07,14,20.20
2015,07,03,07,15,20.30
2015,07,03,07,16,20.50
2015,07,03,07,17,20.60
2015,07,03,07,18,20.70
2015,07,03,07,19,20.80
2015,07,03,07,20,20.80
2015,07,03,07,21,20.90
2015,07,03,07,22,20.90
2015,07,03,07,23,20.90
2015,07,03,07,24,21.00
2015,07,03,07,25,21.10
2015,07,03,07,26,21.10
2015,07,03,07,27,21.10
2015,07,03,07,28,21.10
2015,07,03,07,29,21.10
2015,07,03,07,30,21.10
2015,07,03,07,31,21.30
2015,07,03,07,32,21.40
2015,07,03,07,33,21.50
2015,07,03,07,34,21.60
2015,07,03,07,35,21.60
2015,07,03,07,36,21.70
2015,07,03,07,37,21.70
2015,07,03,07,38,21.70
2015,07,03,07,39,21.80
2015,07,03,07,40,21.80
2015,07,03,07,41,21.80
2015,07,03,07,42,21.80
2015,07,03,07,43,21.80
2015,07,03,07,44,21.90
2015,07,03,07,45,21.90
2015,07,03,07,46,21.90
2015,07,03,07,47,21.90
2015,07,03,07,48,21.80
2015,07,03,07,49,21.80
2015,07,03,07,50,21.70
2015,07,03,07,51,21.70
2015,07,03,07,52,21.60
2015,07,03,07,53,21.60
2015,07,03,07,54,21.60
2015,07,03,07,55,21.60
2015,07,03,07,56,21.60
2015,07,03,07,57,21.60
2015,07,03,07,58,21.60
2015,07,03,07,59,21.70
2015,07,03,08,00,21.70
2015,07,03,08,01,21.70
2015,07,03,08,02,21.80
2015,07,03,08,03,21.80
2015,07,03,08,04,21.90
2015,07,03,08,05,22.00
2015,07,03,08,06,22.10
2015,07,03,08,07,22.10
2015,07,03,08,08,22.10
2015,07,03,08,09,22.20
2015,07,03,08,10,22.20
2015,07,03,08,11,22.20
2015,07,03,08,12,22.30
2015,07,03,08,13,22.30
2015,07,03,08,14,22.30
2015,07,03,08,15,22.30
2015,07,03,08,16,22.40
2015,07,03,08,17,22.40
2015,07,03,08,18,22.40
2015,07,03,08,19,22.40
2015,07,03,08,20,22.40
2015,07,03,08,21,22.40
2015,07,03,08,22,22.50
2015,07,03,08,23,22.50
2015,07,03,08,24,22.50
2015,07,03,08,25,22.50
2015,07,03,08,26,22.50
2015,07,03,08,27,22.60
2015,07,03,08,28,22.60
2015,07,03,08,29,22.60
2015,07,03,08,30,22.60
2015,07,03,08,31,22.70
2015,07,03,08,32,22.70
2015,07,03,08,33,22.70
2015,07,03,08,34,22.70
2015,07,03,08,35,22.70
2015,07,03,08,36,22.70
2015,07,03,08,37,22.70
2015,07,03,08,38,22.80
2015,07,03,08,39,22.90
2015,07,03,08,40,22.90
2015,07,03,08,41,23.00
2015,07,03,08,42,23.10
2015,07,03,08,43,23.20
2015,07,03,08,44,23.20
2015,07,03,08,45,23.20
2015,07,03,08,46,23.20
2015,07,03,08,47,23.20
2015,07,03,08,48,23.20
2015,07,03,08,49,23.30
2015,07,03,08,50,23.30
2015,07,03,08,51,23.40
2015,07,03,08,52,23.40
2015,07,03,08,53,23.40
2015,07,03,08,54,23.40
2015,07,03,08,55,23.50
2015,07,03,08,56,23.50
2015,07,03,08,57,23.50
2015,07,03,08,58,23.50
2015,07,03,08,59,23.50
2015,07,03,09,00,23.50
2015,07,03,09,01,23.60
2015,07,03,09,02,23.70
2015,07,03,09,03,23.70
2015,07,03,09,04,23.80
2015,07,03,09,05,23.80
2015,07,03,09,06,23.80
2015,07,03,09,07,23.80
2015,07,03,09,08,23.80
2015,07,03,09,09,23.80
2015,07,03,09,10,23.80
2015,07,03,09,11,23.90
2015,07,03,09,12,24.00
2015,07,03,09,13,24.00
2015,07,03,09,14,24.00
2015,07,03,09,15,24.00
2015,07,03,09,16,24.00
2015,07,03,09,17,23.90
2015,07,03,09,18,23.90
2015,07,03,09,19,23.90
2015,07,03,09,20,23.90
2015,07,03,09,21,24.00
2015,07,03,09,22,24.10
2015,07,03,09,23,24.10
2015,07,03,09,24,24.20
2015,07,03,09,25,24.30
2015,07,03,09,26,24.40
2015,07,03,09,27,24.40
2015,07,03,09,28,24.50
2015,07,03,09,29,24.50
2015,07,03,09,30,24.50
2015,07,03,09,31,24.60
2015,07,03,09,32,24.70
2015,07,03,09,33,24.70
2015,07,03,09,34,24.80
2015,07,03,09,35,24.80
2015,07,03,09,36,24.90
2015,07,03,09,37,24.90
2015,07,03,09,38,25.00
2015,07,03,09,39,25.10
2015,07,03,09,40,25.10
2015,07,03,09,41,25.20
2015,07,03,09,42,25.20
2015,07,03,09,43,25.20
2015,07,03,09,44,25.20
2015,07,03,09,45,25.20
2015,07,03,09,46,25.20
2015,07,03,09,47,25.20
2015,07,03,09,48,25.20
2015,07,03,09,49,25.20
2015,07,03,09,50,25.20
2015,07,03,09,51,25.30
2015,07,03,09,52,25.40
2015,07,03,09,53,25.50
2015,07,03,09,54,25.50
2015,07,03,09,55,25.50
2015,07,03,09,56,25.60
2015,07,03,09,57,25.60
2015,07,03,09,58,25.70
2015,07,03,09,59,25.80
2015,07,03,10,00,25.90
2015,07,03,10,01,26.00
2015,07,03,10,02,26.00
2015,07,03,10,03,26.10
2015,07,03,10,04,26.20
2015,07,03,10,05,26.20
2015,07,03,10,06,26.20
2015,07,03,10,07,26.20
2015,07,03,10,08,26.30
2015,07,03,10,09,26.70
2015,07,03,10,10,26.70
2015,07,03,10,11,26.70
2015,07,03,10,12,26.70
2015,07,03,10,13,26.60
2015,07,03,10,14,26.60
2015,07,03,10,15,26.60
2015,07,03,10,16,26.50
2015,07,03,10,17,26.50
2015,07,03,10,18,26.50
2015,07,03,10,19,26.40
2015,07,03,10,20,26.40
2015,07,03,10,21,26.40
2015,07,03,10,22,26.30
2015,07,03,10,23,26.30
2015,07,03,10,24,26.30
2015,07,03,10,25,26.40
2015,07,03,10,26,26.50
2015,07,03,10,27,26.60
2015,07,03,10,28,26.70
2015,07,03,10,29,26.70
2015,07,03,10,30,26.70
2015,07,03,10,31,26.80
2015,07,03,10,32,26.80
2015,07,03,10,33,26.80
2015,07,03,10,34,26.80
2015,07,03,10,35,26.90
2015,07,03,10,36,26.90
2015,07,03,10,37,26.90
2015,07,03,10,38,26.90
2015,07,03,10,39,26.90
2015,07,03,10,40,27.00
2015,07,03,10,41,27.00
2015,07,03,10,42,27.10
2015,07,03,10,43,27.10
2015,07,03,10,44,27.20
2015,07,03,10,45,27.30
2015,07,03,10,46,27.30
2015,07,03,10,47,27.40
2015,07,03,10,48,27.40
2015,07,03,10,49,27.50
2015,07,03,10,50,27.50
2015,07,03,10,51,27.60
2015,07,03,10,52,27.60
2015,07,03,10,53,27.70
2015,07,03,10,54,27.70
2015,07,03,10,55,27.70
2015,07,03,10,56,27.70
2015,07,03,10,57,27.70
2015,07,03,10,58,27.70
2015,07,03,10,59,27.80
2015,07,03,11,00,27.80
2015,07,03,11,01,27.90
2015,07,03,11,02,27.90
2015,07,03,11,03,27.90
2015,07,03,11,04,27.90
2015,07,03,11,05,27.90
2015,07,03,11,06,27.90
2015,07,03,11,07,27.90
2015,07,03,11,08,27.80
2015,07,03,11,09,27.80
2015,07,03,11,10,27.80
2015,07,03,11,11,27.90
2015,07,03,11,12,27.90
2015,07,03,11,13,28.00
2015,07,03,11,14,28.20
2015,07,03,11,15,28.30
2015,07,03,11,16,28.30
2015,07,03,11,17,28.40
2015,07,03,11,18,28.50
2015,07,03,11,19,28.60
2015,07,03,11,20,28.60
2015,07,03,11,21,28.60
2015,07,03,11,22,28.60
2015,07,03,11,23,28.50
2015,07,03,11,24,28.40
2015,07,03,11,25,28.40
2015,07,03,11,26,28.40
2015,07,03,11,27,28.50
2015,07,03,11,28,28.60
2015,07,03,11,29,28.60
2015,07,03,11,30,28.70
2015,07,03,11,31,28.80
2015,07,03,11,32,28.80
2015,07,03,11,33,28.90
2015,07,03,11,34,28.90
2015,07,03,11,35,29.00
2015,07,03,11,36,29.00
2015,07,03,11,37,29.00
2015,07,03,11,38,29.10
2015,07,03,11,39,29.10
2015,07,03,11,40,29.10
2015,07,03,11,41,29.10
2015,07,03,11,42,29.10
2015,07,03,11,43,29.10
2015,07,03,11,44,29.20
2015,07,03,11,45,29.20
2015,07,03,11,46,29.20
2015,07,03,11,47,29.10
2015,07,03,11,48,29.20
2015,07,03,11,49,29.20
2015,07,03,11,50,29.20
2015,07,03,11,51,29.20
2015,07,03,11,52,29.20
2015,07,03,11,53,29.30
2015,07,03,11,54,29.50
2015,07,03,11,55,29.60
2015,07,03,11,56,29.80
2015,07,03,11,57,29.80
2015,07,03,11,58,29.80
2015,07,03,11,59,29.90
2015,07,03,12,00,30.00
2015,07,03,12,01,30.10
2015,07,03,12,02,30.10
2015,07,03,12,03,30.00
2015,07,03,12,04,30.00
2015,07,03,12,05,30.00
2015,07,03,12,06,30.00
2015,07,03,12,07,30.10
2015,07,03,12,08,30.10
2015,07,03,12,09,30.20
2015,07,03,12,10,30.20
2015,07,03,12,11,30.20
2015,07,03,12,12,30.20
2015,07,03,12,13,30.20
2015,07,03,12,14,30.10
2015,07,03,12,15,30.10
2015,07,03,12,16,30.10
2015,07,03,12,17,30.20
2015,07,03,12,18,30.20
2015,07,03,12,19,30.20
2015,07,03,12,20,30.30
2015,07,03,12,21,30.30
2015,07,03,12,22,30.40
2015,07,03,12,23,30.50
2015,07,03,12,24,30.50
2015,07,03,12,25,30.40
2015,07,03,12,26,30.40
2015,07,03,12,27,30.40
2015,07,03,12,28,30.40
2015,07,03,12,29,30.40
2015,07,03,12,30,30.50
2015,07,03,12,31,30.50
2015,07,03,12,32,30.50
2015,07,03,12,33,30.60
2015,07,03,12,34,30.60
2015,07,03,12,35,30.60
2015,07,03,12,36,30.60
2015,07,03,12,37,30.60
2015,07,03,12,38,30.60
2015,07,03,12,39,30.70
2015,07,03,12,40,30.80
2015,07,03,12,41,30.90
2015,07,03,12,42,30.90
2015,07,03,12,43,30.90
2015,07,03,12,44,31.00
2015,07,03,12,45,31.00
2015,07,03,12,46,31.10
2015,07,03,12,47,31.20
2015,07,03,12,48,31.30
2015,07,03,12,49,31.40
2015,07,03,12,50,31.50
2015,07,03,12,51,31.60
2015,07,03,12,52,31.60
2015,07,03,12,53,31.70
2015,07,03,12,54,31.70
2015,07,03,12,55,31.80
2015,07,03,12,56,31.80
2015,07,03,12,57,31.80
2015,07,03,12,58,31.70
2015,07,03,12,59,31.70
2015,07,03,13,00,31.60
2015,07,03,13,01,31.60
2015,07,03,13,02,31.70
2015,07,03,13,03,31.80
2015,07,03,13,04,31.90
2015,07,03,13,05,32.10
2015,07,03,13,06,32.10
2015,07,03,13,07,32.10
2015,07,03,13,08,32.20
2015,07,03,13,09,32.20
2015,07,03,13,10,32.30
2015,07,03,13,11,32.30
2015,07,03,13,12,32.20
2015,07,03,13,13,32.20
2015,07,03,13,14,32.10
2015,07,03,13,15,32.10
2015,07,03,13,16,32.00
2015,07,03,13,17,32.10
2015,07,03,13,18,32.10
2015,07,03,13,19,32.10
2015,07,03,13,20,32.20
2015,07,03,13,21,32.20
2015,07,03,13,22,32.10
2015,07,03,13,23,32.10
2015,07,03,13,24,32.10
2015,07,03,13,25,32.20
2015,07,03,13,26,32.20
2015,07,03,13,27,32.20
2015,07,03,13,28,32.20
2015,07,03,13,29,32.20
2015,07,03,13,30,32.20
2015,07,03,13,31,32.20
2015,07,03,13,32,32.20
2015,07,03,13,33,32.20
2015,07,03,13,34,32.30
2015,07,03,13,35,32.30
2015,07,03,13,36,32.30
2015,07,03,13,37,32.30
2015,07,03,13,38,32.40
2015,07,03,13,39,32.30
2015,07,03,13,40,32.30
2015,07,03,13,41,32.30
2015,07,03,13,42,32.30
2015,07,03,13,43,32.20
2015,07,03,13,44,32.10
2015,07,03,13,45,32.00
2015,07,03,13,46,32.10
2015,07,03,13,47,32.10
2015,07,03,13,48,32.10
2015,07,03,13,49,32.20
2015,07,03,13,50,32.20
2015,07,03,13,51,32.20
2015,07,03,13,52,32.30
2015,07,03,13,53,32.40
2015,07,03,13,54,32.50
2015,07,03,13,55,32.50
2015,07,03,13,56,32.60
2015,07,03,13,57,32.60
2015,07,03,13,58,32.70
2015,07,03,13,59,32.70
2015,07,03,14,00,32.70
2015,07,03,14,01,32.70
2015,07,03,14,02,32.70
2015,07,03,14,03,32.80
2015,07,03,14,04,32.80
2015,07,03,14,05,32.90
2015,07,03,14,06,32.90
2015,07,03,14,07,32.80
2015,07,03,14,08,32.80
2015,07,03,14,09,32.80
2015,07,03,14,10,32.70
2015,07,03,14,11,32.60
2015,07,03,14,12,32.60
2015,07,03,14,13,32.60
2015,07,03,14,14,32.60
2015,07,03,14,15,32.60
2015,07,03,14,16,32.70
2015,07,03,14,17,32.70
2015,07,03,14,18,32.70
2015,07,03,14,19,32.60
2015,07,03,14,20,32.60
2015,07,03,14,21,32.60
2015,07,03,14,22,32.50
2015,07,03,14,23,32.60
2015,07,03,14,24,32.60
2015,07,03,14,25,32.60
2015,07,03,14,26,32.70
2015,07,03,14,27,32.70
2015,07,03,14,28,32.70
2015,07,03,14,29,32.70
2015,07,03,14,30,32.70
2015,07,03,14,31,32.70
2015,07,03,14,32,32.80
2015,07,03,14,33,32.80
2015,07,03,14,34,32.90
2015,07,03,14,35,32.90
2015,07,03,14,36,32.90
2015,07,03,14,37,32.80
2015,07,03,14,38,32.70
2015,07,03,14,39,32.60
2015,07,03,14,40,32.50
2015,07,03,14,41,32.60
2015,07,03,14,42,32.60
2015,07,03,14,43,32.60
2015,07,03,14,44,32.50
2015,07,03,14,45,32.50
2015,07,03,14,46,32.40
2015,07,03,14,47,32.40
2015,07,03,14,48,32.40
2015,07,03,14,49,32.50
2015,07,03,14,50,32.50
2015,07,03,14,51,32.60
2015,07,03,14,52,32.60
2015,07,03,14,53,32.70
2015,07,03,14,54,32.80
2015,07,03,14,55,32.80
2015,07,03,14,56,32.80
2015,07,03,14,57,32.80
2015,07,03,14,58,32.80
2015,07,03,14,59,32.80
2015,07,03,15,00,32.80
2015,07,03,15,01,32.80
2015,07,03,15,02,32.90
2015,07,03,15,03,32.90
2015,07,03,15,04,33.00
2015,07,03,15,05,33.10
2015,07,03,15,06,33.10
2015,07,03,15,07,33.10
2015,07,03,15,08,33.10
2015,07,03,15,09,33.10
2015,07,03,15,10,33.10
2015,07,03,15,11,33.10
2015,07,03,15,12,33.10
2015,07,03,15,13,33.00
2015,07,03,15,14,33.00
2015,07,03,15,15,33.00
2015,07,03,15,16,33.10
2015,07,03,15,17,33.10
2015,07,03,15,18,33.10
2015,07,03,15,19,33.10
2015,07,03,15,20,33.10
2015,07,03,15,21,33.10
2015,07,03,15,22,33.10
2015,07,03,15,23,33.10
2015,07,03,15,24,33.10
2015,07,03,15,25,33.20
2015,07,03,15,26,33.30
2015,07,03,15,27,33.40
2015,07,03,15,28,33.40
2015,07,03,15,29,33.50
2015,07,03,15,30,33.50
2015,07,03,15,31,33.40
2015,07,03,15,32,33.30
2015,07,03,15,33,33.30
2015,07,03,15,34,33.40
2015,07,03,15,35,33.40
2015,07,03,15,36,33.40
2015,07,03,15,37,33.50
2015,07,03,15,38,33.70
2015,07,03,15,39,33.90
2015,07,03,15,40,34.00
2015,07,03,15,41,34.00
2015,07,03,15,42,33.90
2015,07,03,15,43,34.00
2015,07,03,15,44,34.00
2015,07,03,15,45,33.90
2015,07,03,15,46,33.90
2015,07,03,15,47,33.90
2015,07,03,15,48,34.00
2015,07,03,15,49,34.00
2015,07,03,15,50,34.10
2015,07,03,15,51,34.00
2015,07,03,15,52,34.00
2015,07,03,15,53,33.90
2015,07,03,15,54,33.90
2015,07,03,15,55,34.00
2015,07,03,15,56,34.00
2015,07,03,15,57,34.10
2015,07,03,15,58,34.20
2015,07,03,15,59,34.20
2015,07,03,16,00,34.30
2015,07,03,16,01,34.40
2015,07,03,16,02,34.40
2015,07,03,16,03,34.50
2015,07,03,16,04,34.50
2015,07,03,16,05,34.60
2015,07,03,16,06,34.60
2015,07,03,16,07,34.50
2015,07,03,16,08,34.30
2015,07,03,16,09,34.20
2015,07,03,16,10,34.00
2015,07,03,16,11,33.90
2015,07,03,16,12,33.90
2015,07,03,16,13,33.90
2015,07,03,16,14,33.80
2015,07,03,16,15,33.80
2015,07,03,16,16,33.80
2015,07,03,16,17,33.80
2015,07,03,16,18,33.80
2015,07,03,16,19,33.70
2015,07,03,16,20,33.60
2015,07,03,16,21,33.50
2015,07,03,16,22,33.50
2015,07,03,16,23,33.50
2015,07,03,16,24,33.50
2015,07,03,16,25,33.60
2015,07,03,16,26,33.60
2015,07,03,16,27,33.60
2015,07,03,16,28,33.60
2015,07,03,16,29,33.60
2015,07,03,16,30,33.50
2015,07,03,16,31,33.50
2015,07,03,16,32,33.40
2015,07,03,16,33,33.40
2015,07,03,16,34,33.30
2015,07,03,16,35,33.30
2015,07,03,16,36,33.20
2015,07,03,16,37,33.10
2015,07,03,16,38,33.10
2015,07,03,16,39,33.10
2015,07,03,16,40,33.10
2015,07,03,16,41,33.00
2015,07,03,16,42,32.90
2015,07,03,16,43,32.90
2015,07,03,16,44,32.90
2015,07,03,16,45,32.80
2015,07,03,16,46,32.70
2015,07,03,16,47,32.50
2015,07,03,16,48,32.40
2015,07,03,16,49,32.40
2015,07,03,16,50,32.40
2015,07,03,16,51,32.40
2015,07,03,16,52,32.30
2015,07,03,16,53,32.30
2015,07,03,16,54,32.20
2015,07,03,16,55,32.20
2015,07,03,16,56,32.20
2015,07,03,16,57,32.20
2015,07,03,16,58,32.20
2015,07,03,16,59,32.20
2015,07,03,17,00,32.20
2015,07,03,17,01,32.10
2015,07,03,17,02,32.10
2015,07,03,17,03,32.00
2015,07,03,17,04,32.00
2015,07,03,17,05,31.90
2015,07,03,17,06,31.90
2015,07,03,17,07,31.90
2015,07,03,17,08,31.90
2015,07,03,17,09,31.80
2015,07,03,17,10,31.80
2015,07,03,17,11,31.70
2015,07,03,17,12,31.70
2015,07,03,17,13,31.70
2015,07,03,17,14,31.80
2015,07,03,17,15,31.80
2015,07,03,17,16,31.80
2015,07,03,17,17,31.80
2015,07,03,17,18,31.80
2015,07,03,17,19,31.90
2015,07,03,17,20,32.00
2015,07,03,17,21,32.10
2015,07,03,17,22,32.10